Big Rapids, MI

9:06 AM EDT on August 20, 2019 (GMT -0400)
Roben-Hood

Weather History for KRQB - May, 2019

Change the Weather History Date:

Friday, May 31, 2019

  Actual Average Record
Temperature  
Mean Temperature 62 °F -  
Max Temperature 79 °F 73 °F 90 °F (1988)
Min Temperature 45 °F 48 °F 30 °F (2001)
Degree Days  
Heating Degree Days 3    
Growing Degree Days 12 (Base 50)    
Moisture  
Dew Point 53 °F    
Average Humidity 73    
Maximum Humidity 97    
Minimum Humidity 41    
Precipitation  
Precipitation 0.26 in - - ()
Sea Level Pressure  
Sea Level Pressure 29.80 in    
Wind  
Wind Speed 5 mph (SW)    
Max Wind Speed 17 mph    
Max Gust Speed 29 mph    
Visibility 10 miles    
Events Rain    
Averages and records for this station are not official NWS values.
T = Trace of Precipitation, MM = Missing Value Source: NWS Daily Summary

Daily Weather History Graph

Daily Weather History Graph

Search for Another Location

Airport or City:

Astronomy

May. 31, 2019 Rise Set
Actual Time 6:03 AM EDT 9:16 PM EDT
Civil Twilight 5:28 AM EDT 9:51 PM EDT
Nautical Twilight 4:43 AM EDT 10:36 PM EDT
Astronomical Twilight 3:48 AM EDT 11:31 PM EDT
Moon 4:45 AM EDT (5/31) 6:17 PM EDT (5/31)
Length of Visible Light 16h 22m
Length of Day
15h 12m
Waning Crescent, 9% of the Moon is Illuminated
May 31
Waning Crescent
Jun 3
New
Jun 10
First Quarter
Jun 17
Full
Jun 25
Last Quarter

Hourly Weather History & Observations

Time (EDT) Temp. Dew Point Humidity Pressure Visibility Wind Dir Wind Speed Gust Speed Precip Events Conditions
12:15 AM 54.3 °F 52.2 °F 92% 29.82 in 10.0 mi Calm Calm - N/A   Clear
12:16 AM 54.3 °F 52.2 °F 92% 29.82 in 10.0 mi Calm Calm - N/A   Clear
12:35 AM 52.5 °F 50.7 °F 94% 29.83 in 10.0 mi Calm Calm - N/A   Clear
12:55 AM 52.7 °F 50.9 °F 94% 29.83 in 10.0 mi Calm Calm - N/A   Clear
12:56 AM 52.7 °F 51.1 °F 94% 29.83 in 10.0 mi Calm Calm - N/A   Clear
1:15 AM 52.2 °F 50.7 °F 95% 29.83 in 10.0 mi Calm Calm - N/A   Clear
1:16 AM 52.2 °F 50.7 °F 95% 29.83 in 10.0 mi Calm Calm - N/A   Clear
1:35 AM 52.3 °F 50.9 °F 95% 29.83 in 10.0 mi Calm Calm - N/A   Clear
1:55 AM 51.3 °F 49.8 °F 95% 29.82 in 10.0 mi Calm Calm - N/A   Clear
2:15 AM 50.9 °F 49.3 °F 94% 29.83 in 10.0 mi Calm Calm - N/A   Clear
2:16 AM 50.9 °F 49.3 °F 94% 29.83 in 10.0 mi Calm Calm - N/A   Clear
2:35 AM 50.0 °F 48.4 °F 94% 29.83 in 10.0 mi Calm Calm - N/A   Clear
2:36 AM 50.0 °F 48.4 °F 94% 29.83 in 10.0 mi Calm Calm - N/A   Clear
2:55 AM 50.0 °F 48.6 °F 95% 29.83 in 10.0 mi Calm Calm - N/A   Clear
3:15 AM 48.6 °F 47.1 °F 95% 29.83 in 10.0 mi Calm Calm - N/A   Clear
3:35 AM 49.1 °F 47.7 °F 95% 29.83 in 10.0 mi Calm Calm - N/A   Scattered Clouds
3:36 AM 49.1 °F 47.7 °F 95% 29.83 in 10.0 mi Calm Calm - N/A   Scattered Clouds
3:55 AM 48.9 °F 47.7 °F 95% 29.83 in 10.0 mi Calm Calm - N/A   Mostly Cloudy
3:56 AM 49.1 °F 47.7 °F 95% 29.83 in 10.0 mi Calm Calm - N/A   Mostly Cloudy
4:15 AM 48.9 °F 47.7 °F 95% 29.83 in 10.0 mi Calm Calm - N/A   Scattered Clouds
4:35 AM 48.2 °F 46.9 °F 95% 29.83 in 10.0 mi West 3.5 mph - N/A   Clear
4:55 AM 48.2 °F 46.8 °F 95% 29.82 in 10.0 mi West 4.6 mph - N/A   Clear
4:56 AM 48.2 °F 46.8 °F 95% 29.82 in 10.0 mi West 4.6 mph - N/A   Clear
5:15 AM 47.7 °F 46.4 °F 95% 29.83 in 10.0 mi Calm Calm - N/A   Clear
5:16 AM 47.7 °F 46.4 °F 95% 29.83 in 10.0 mi West 3.5 mph - N/A   Clear
5:35 AM 47.3 °F 46.0 °F 95% 29.83 in 10.0 mi Calm Calm - N/A   Clear
5:55 AM 46.8 °F 45.5 °F 95% 29.83 in 10.0 mi WNW 5.8 mph - N/A   Clear
6:15 AM 46.0 °F 44.8 °F 95% 29.84 in 10.0 mi Calm Calm - N/A   Clear
6:16 AM 45.9 °F 44.8 °F 96% 29.84 in 10.0 mi Calm Calm - N/A   Clear
6:35 AM 46.4 °F 45.5 °F 97% 29.84 in 10.0 mi Calm Calm - N/A   Clear
6:55 AM 46.6 °F 45.5 °F 96% 29.84 in 10.0 mi Calm Calm - N/A   Clear
7:15 AM 47.8 °F 46.8 °F 96% 29.85 in 10.0 mi Calm Calm - N/A   Clear
7:35 AM 48.4 °F 47.3 °F 96% 29.84 in 10.0 mi South 3.5 mph - N/A   Clear
7:36 AM 48.4 °F 47.3 °F 96% 29.84 in 10.0 mi South 3.5 mph - N/A   Clear
7:55 AM 50.4 °F 48.4 °F 93% 29.84 in 10.0 mi South 3.5 mph - N/A   Clear
8:15 AM 52.0 °F 50.0 °F 93% 29.84 in 10.0 mi SSW 8.1 mph - N/A   Mostly Cloudy
8:35 AM 54.5 °F 51.1 °F 88% 29.84 in 10.0 mi ESE 9.2 mph - N/A   Scattered Clouds
8:36 AM 54.5 °F 51.1 °F 88% 29.84 in 10.0 mi ESE 9.2 mph - N/A   Scattered Clouds
8:55 AM 56.5 °F 52.5 °F 87% 29.83 in 10.0 mi SSW 6.9 mph - N/A   Clear
8:56 AM 56.7 °F 52.7 °F 87% 29.83 in 10.0 mi South 6.9 mph - N/A   Clear
9:15 AM 59.7 °F 54.7 °F 83% 29.83 in 10.0 mi Calm Calm - N/A   Clear
9:35 AM 62.8 °F 56.5 °F 80% 29.83 in 10.0 mi Calm Calm - N/A   Scattered Clouds
9:55 AM 64.9 °F 56.3 °F 74% 29.83 in 10.0 mi WSW 8.1 mph 16.1 mph N/A   Scattered Clouds
9:56 AM 64.9 °F 56.1 °F 73% 29.83 in 10.0 mi SW 8.1 mph 16.1 mph N/A   Scattered Clouds
10:17 AM 66.2 °F 55.9 °F 69% 29.83 in 10.0 mi WSW 8.1 mph 18.4 mph N/A   Overcast
10:35 AM 67.1 °F 55.9 °F 67% 29.82 in 10.0 mi WSW 9.2 mph 18.4 mph N/A   Scattered Clouds
10:58 AM 69.4 °F 56.7 °F 64% 29.83 in 10.0 mi WSW 13.8 mph 19.6 mph N/A   Clear
11:16 AM 71.2 °F 57.4 °F 61% 29.83 in 10.0 mi North - - N/A   Clear
11:35 AM 72.3 °F 57.2 °F 59% 29.83 in 10.0 mi WSW 12.7 mph 19.6 mph N/A   Clear
11:55 AM 73.6 °F 58.1 °F 58% 29.83 in 10.0 mi WSW 10.4 mph 16.1 mph N/A   Clear
11:56 AM 73.4 °F 57.9 °F 58% 29.83 in 10.0 mi WSW 11.5 mph 16.1 mph N/A   Clear
12:18 PM 74.8 °F 57.4 °F 54% 29.83 in 10.0 mi West 9.2 mph - N/A   Scattered Clouds
12:35 PM 75.6 °F 57.2 °F 53% 29.82 in 10.0 mi West 16.1 mph 20.7 mph N/A   Scattered Clouds
12:55 PM 76.3 °F 56.8 °F 51% 29.82 in 10.0 mi WSW 11.5 mph 17.3 mph N/A   Clear
12:56 PM 76.3 °F 57.2 °F 52% 29.82 in 10.0 mi WSW 13.8 mph 17.3 mph N/A   Clear
1:15 PM 77.9 °F 55.9 °F 47% 29.81 in 10.0 mi North - - N/A   Clear
1:20 PM 77.4 °F 55.2 °F 46% 29.81 in 10.0 mi WSW 16.1 mph 24.2 mph N/A   Clear
1:38 PM 79.0 °F 55.0 °F 44% 29.81 in 10.0 mi West 16.1 mph 23.0 mph N/A   Clear
1:56 PM 79.0 °F 55.8 °F 45% 29.80 in 10.0 mi West 17.3 mph 26.5 mph N/A   Clear
2:15 PM 78.6 °F 55.2 °F 44% 29.79 in 10.0 mi WSW 12.7 mph 23.0 mph N/A   Clear
2:16 PM 78.6 °F 55.2 °F 44% 29.79 in 10.0 mi West 12.7 mph 23.0 mph N/A   Clear
2:35 PM 79.0 °F 56.3 °F 46% 29.78 in 10.0 mi SW 16.1 mph 23.0 mph N/A   Clear
2:59 PM 79.2 °F 53.8 °F 41% 29.78 in 10.0 mi North - - N/A   Clear
3:16 PM 79.0 °F 54.1 °F 42% 29.77 in 10.0 mi WSW 12.7 mph 28.8 mph N/A   Clear
3:35 PM 79.7 °F 54.9 °F 42% 29.77 in 10.0 mi WSW 10.4 mph 21.9 mph N/A   Clear
3:55 PM 78.8 °F 54.9 °F 44% 29.76 in 10.0 mi SW 16.1 mph 25.3 mph N/A   Clear
3:59 PM 78.8 °F 54.9 °F 44% 29.76 in 10.0 mi SW 17.3 mph 27.6 mph N/A   Clear
4:18 PM 78.8 °F 55.4 °F 44% 29.76 in 10.0 mi SW 15.0 mph 24.2 mph N/A   Clear
4:36 PM 78.1 °F 54.5 °F 44% 29.76 in 10.0 mi North - - N/A   Clear
4:55 PM 78.8 °F 54.1 °F 42% 29.76 in 10.0 mi WSW 11.5 mph 21.9 mph N/A   Clear
5:15 PM 77.7 °F 53.4 °F 43% 29.75 in 10.0 mi SW 12.7 mph - N/A   Clear
5:16 PM 77.7 °F 53.6 °F 43% 29.75 in 10.0 mi SW 16.1 mph - N/A   Clear
5:39 PM 77.7 °F 54.5 °F 45% 29.74 in 10.0 mi SW 16.1 mph 26.5 mph N/A   Clear
5:57 PM 77.4 °F 55.9 °F 47% 29.74 in 10.0 mi WSW 15.0 mph 23.0 mph N/A   Clear
6:15 PM 77.0 °F 57.0 °F 50% 29.74 in 10.0 mi WSW 13.8 mph - N/A   Clear
6:35 PM 76.5 °F 57.2 °F 51% 29.74 in 10.0 mi WSW 15.0 mph 24.2 mph N/A   Clear
6:36 PM 76.5 °F 57.2 °F 51% 29.74 in 10.0 mi WSW 16.1 mph 24.2 mph N/A   Clear
6:55 PM 76.5 °F 57.7 °F 52% 29.74 in 10.0 mi WSW 15.0 mph 24.2 mph N/A   Clear
7:18 PM 75.6 °F 57.2 °F 53% 29.74 in 10.0 mi WSW 10.4 mph - N/A   Clear
7:35 PM 75.2 °F 57.2 °F 53% 29.74 in 10.0 mi WSW 15.0 mph 21.9 mph N/A   Clear
7:55 PM 74.5 °F 57.6 °F 55% 29.74 in 10.0 mi SW 11.5 mph - N/A   Clear
8:15 PM 73.6 °F 57.2 °F 56% 29.74 in 10.0 mi WSW 11.5 mph 17.3 mph N/A   Clear
8:20 PM 73.6 °F 56.8 °F 56% 29.74 in 10.0 mi WSW 11.5 mph 16.1 mph N/A   Clear
8:38 PM 72.9 °F 56.8 °F 57% 29.73 in 10.0 mi WSW 11.5 mph 17.3 mph N/A   Clear
8:56 PM 72.7 °F 57.2 °F 58% 29.73 in 10.0 mi WSW 8.1 mph 16.1 mph N/A   Clear
9:15 PM 72.5 °F 57.2 °F 59% 29.73 in 10.0 mi SW 9.2 mph - N/A   Clear
9:35 PM 71.8 °F 57.2 °F 60% 29.73 in 10.0 mi WSW 8.1 mph - N/A   Clear
9:36 PM 71.8 °F 57.2 °F 60% 29.73 in 10.0 mi WSW 6.9 mph - N/A   Clear
9:59 PM 70.9 °F 57.6 °F 63% 29.74 in 10.0 mi WSW 6.9 mph - N/A   Mostly Cloudy
10:17 PM 70.9 °F 57.4 °F 62% 29.77 in 10.0 mi West 9.2 mph 17.3 mph N/A   Mostly Cloudy
10:35 PM 64.9 °F 57.7 °F 77% 29.82 in 1.2 mi ENE 5.8 mph 24.2 mph 0.21 in Rain Heavy Rain
10:55 PM 62.1 °F 59.0 °F 90% 29.79 in 10.0 mi SSE 8.1 mph - 0.24 in Rain Light Rain
10:56 PM 62.1 °F 59.0 °F 90% 29.78 in 10.0 mi SSE 8.1 mph - 0.24 in Rain Light Rain
11:19 PM 63.5 °F 60.1 °F 89% 29.78 in 10.0 mi SSE 4.6 mph - N/A Rain Light Rain
11:37 PM 63.1 °F 60.3 °F 90% 29.79 in 10.0 mi SW 3.5 mph - 0.01 in Rain Light Rain
11:55 PM 63.7 °F 61.2 °F 91% 29.78 in 10.0 mi SW 6.9 mph - 0.02 in Rain Light Rain
11:56 PM 63.5 °F 61.2 °F 92% 29.78 in 10.0 mi SW 5.8 mph - 0.02 in Rain Light Rain